ARIANE 5 R/B, 41593

Orbit data source: Space-Track

ARIANE 5 R/B, 41593 is space debris in HEO originally from a launch on Sat, 18 Jun 2016 UTC launched from the French Guiana (FRGUI). Debris objects in space refer to the collection of defunct objects orbiting the Earth. Examples of debris include non-operational satellites, rocket bodies, and fragments generated from explosions, collisions, or faulty payload assembly.

Loading next visibility...
Identifier
41593, 2016-039C
Orbit
HEO
Country
Flag of FRFR
Related business
Manufacturer
Airbus Safran
Mission
Spacecraft
Bus & Motor
ESC-A, Unknown motor
Mass
~5,000 kg wet, ~5,000 kg dry
Launch date (UTC)
2016-06-18 (10 years ago)
Launch vehicle
Unknown
Launch site
French Guiana (FRGUI)
Object type
Payload
Rocket body
Debris
Shape & HBR
Cyl + 1 Nozzle, 3.5 m
Radar Cross Section
41.627 m², Large (>1 m²)

Expand to show TLE details & history
Last TLE update: 2 days ago

TLE from 2 days ago
0 ARIANE 5 R/B
1 41593U 16039C   26171.16405147  .00001095  00000-0  53725-3 0  9996
2 41593   6.1518 295.6395 7131829  28.7326 356.3847  2.45515694 85744
Epoch: 2026-06-20T03:56Z
TLE epoch observation values (Epoch: 2026-06-20T03:56:14.047Z)
Latitude
0.00016°
Longitude
-31.6532°
Altitude
638.758 km
Speed
9.819 km/s
True Right ascension
19h 43m 09s
True Declination
0° 00' 01"
Sunlit
Object was in full shadow at epoch
Visualization orbit readout
Latitude
Unknown
Longitude
Unknown
Altitude
Unknown
Speed
Unknown
Apparent Right ascension
Unknown
Apparent Declination
Unknown
Sunlit
N/A
Visualization observer readout
Local Sidereal Time
21:35:49
Azimuth
Unknown
Elevation
Unknown
Doppler factor
Unknown
Orbital elements
Apogee altitude
33,394.798 km
Perigee altitude
280.555 km
Semi-major axis
23,215.814 km
Eccentricity
0.71318
Inclination
6.1518°
RAAN
295.6395°
Arg. of periapsis
28.7326°
True anomaly
330.33873°
Mean anomaly
356.3847°
Eccentric anomaly
347.63331°
Mean motion
0.61357 °/min
Orbital period
586.73 mins
BSTAR
0.00053725
Loading maneuver chart data...
Computing Atmospheric mass density...
Loading historical data...
Loading historical data...
Loading historical data...
Loading historical data...
Loading historical data...
Loading historical data...
Loading historical data...
Other satellites on launch #39 in the year 2016 (2016-06-18 UTC)

Documentation

Showing up to 5 results
|